GFSSW_sfc_rhum_117.txt.gz
RH
60 62 63 67 76 81 81 83 87 92 91 91 90 88 90 91 90 68 60 44 50 53 56 32 34 33 38 42 44 41 55 63 50 42 41 31 28 26 23 25 27 35 42 39 47
62 62 61 63 63 74 78 81 81 86 92 91 92 92 92 92 85 67 49 55 58 58 33 32 38 39 44 42 44 46 62 48 30 23 35 31 30 27 25 26 31 50 51 44 47
61 61 63 63 64 62 75 80 79 81 85 93 91 92 91 86 80 47 66 64 61 57 32 32 33 35 41 41 42 43 50 39 32 22 21 29 28 26 27 35 29 40 52 51 57
66 61 64 61 64 60 63 76 81 77 85 88 93 92 90 78 62 36 64 65 62 42 37 39 40 38 42 40 34 42 34 30 32 25 23 26 25 29 26 26 20 23 49 54 57
65 68 68 67 66 66 61 68 78 75 79 85 91 92 81 87 66 32 57 55 66 46 35 40 45 37 39 36 35 38 34 28 28 24 24 26 27 26 26 21 24 33 48 53 55
68 69 66 69 71 71 69 63 74 75 75 78 86 93 79 91 39 30 29 30 52 49 38 38 37 30 31 33 36 30 30 26 26 24 22 24 24 27 24 20 19 21 43 52 54
66 68 68 69 71 70 72 66 68 72 76 76 81 87 89 77 39 35 34 29 30 49 36 33 34 32 31 29 24 25 28 27 27 26 26 26 30 28 23 22 20 18 24 25 37
68 67 70 69 73 73 72 69 69 72 71 72 77 94 88 52 50 48 40 35 29 32 35 31 31 28 30 28 26 32 32 38 27 24 25 23 34 26 23 22 23 21 22 22 23
63 69 72 69 69 73 74 72 73 73 68 67 84 99 86 58 62 47 42 38 30 32 33 26 31 29 35 39 44 42 42 37 32 23 26 28 34 23 22 17 19 20 19 20 22
60 65 73 73 68 73 75 74 72 69 69 64 77 97 82 73 47 46 36 32 30 36 37 39 34 39 42 46 56 44 40 34 33 26 27 30 28 23 21 20 20 19 19 18 19
64 62 68 74 68 70 81 87 82 90 82 89 80 66 54 56 37 38 33 33 33 42 53 43 45 46 37 36 32 32 33 34 29 24 26 29 28 25 23 26 25 25 25 23 21
61 63 64 74 73 70 84 94 84 92 92 58 57 76 54 44 51 35 33 38 40 47 46 50 49 36 31 30 32 31 34 35 28 26 27 31 31 30 27 26 23 23 27 26 24
56 60 64 72 78 81 83 80 87 77 98 70 58 63 72 60 64 37 26 34 38 45 48 48 41 32 30 30 31 31 35 34 31 30 35 37 40 33 28 28 22 21 25 25 24
63 60 65 71 77 79 75 77 83 79 98 85 78 67 65 53 67 42 25 31 32 41 44 47 34 33 34 31 28 34 28 26 30 39 47 36 57 37 28 25 23 25 28 25 24
60 62 60 68 90 89 67 79 80 83 98 49 66 55 61 70 57 52 36 27 34 43 46 50 43 40 36 32 27 30 28 30 38 45 58 48 55 45 29 27 23 25 26 27 24
61 62 60 70 85 72 61 73 78 98 95 68 69 85 87 69 60 50 43 36 26 35 36 39 33 32 32 26 25 28 31 36 43 49 62 49 49 52 32 25 24 26 24 23 25
63 63 61 57 82 64 71 88 100 98 59 66 84 77 79 79 72 61 58 50 43 56 54 41 40 34 28 35 34 28 39 60 63 69 61 39 40 40 30 26 22 20 23 21 26
67 68 64 57 60 70 86 98 98 64 51 43 45 70 86 71 70 68 63 81 46 41 58 53 60 38 36 35 40 33 37 54 69 71 58 39 50 36 25 21 20 19 19 26 29
70 73 75 64 64 82 98 99 90 69 42 72 71 93 89 73 72 73 70 79 57 35 48 53 50 36 34 34 28 44 46 34 48 51 59 50 41 28 27 23 22 21 22 24 26
98 93 76 59 68 90 100 94 87 49 42 57 94 92 98 88 87 79 76 66 66 36 31 43 52 36 39 34 38 35 34 49 58 72 72 57 49 40 31 26 24 24 27 35 34
97 94 68 71 85 97 99 94 64 51 46 70 89 97 92 98 89 87 72 63 52 38 33 32 40 43 41 44 41 49 45 49 46 58 62 69 56 36 28 26 25 25 25 36 38
96 96 77 82 100 98 93 74 64 68 51 56 59 61 65 90 100 98 85 64 50 37 38 30 57 50 44 42 31 32 40 38 50 62 53 62 57 25 30 27 26 26 25 32 40
98 83 73 85 100 99 95 87 94 65 62 57 56 64 52 82 100 98 93 58 49 41 35 35 60 78 61 46 43 43 37 39 43 50 59 54 51 27 25 27 25 27 28 34 40
99 98 93 95 95 87 93 92 83 66 77 71 62 50 80 88 72 94 79 74 47 48 54 42 72 87 74 58 40 48 42 37 39 50 48 46 42 34 32 29 28 26 28 36 39
100 96 90 98 92 98 98 97 77 74 74 73 67 61 58 71 66 88 89 90 75 68 55 44 84 71 56 48 38 39 41 40 41 37 45 37 37 31 31 28 26 25 28 34 40
100 98 93 98 76 75 74 82 64 57 82 76 82 65 52 59 57 65 82 94 97 79 63 69 82 65 59 44 38 41 39 39 38 36 36 38 43 31 27 32 30 27 29 29 35
97 88 99 83 86 89 85 70 67 58 61 62 67 87 90 64 54 49 81 93 95 98 96 85 75 67 74 49 49 64 42 40 37 34 35 43 33 32 32 30 30 28 27 27 28

GFSSW_sfc_rhum_120.txt.gz
RH
65 62 58 64 59 67 66 74 78 81 82 86 90 90 90 93 93 78 67 50 57 53 56 34 40 39 44 49 46 45 59 68 56 52 42 34 30 29 27 28 38 41 50 47 46
66 66 65 57 63 58 64 65 75 79 80 81 86 94 92 93 92 78 51 54 55 65 49 34 40 44 53 47 45 49 65 54 41 28 35 34 33 28 27 32 44 68 55 46 50
64 66 66 67 67 64 64 63 68 75 77 78 81 87 94 88 81 47 52 58 60 61 32 30 38 45 53 49 45 50 55 44 35 32 24 29 30 26 30 37 38 45 58 54 54
62 67 69 67 66 68 70 69 63 65 75 74 77 82 93 76 70 37 64 67 68 48 38 39 45 50 49 46 38 50 39 37 36 32 24 27 25 31 29 28 24 45 51 54 55
60 66 68 69 67 68 70 70 70 63 70 75 75 77 94 93 67 36 55 57 61 40 35 41 48 42 44 42 42 44 38 35 33 31 27 26 29 27 25 24 26 45 58 55 54
58 68 68 70 69 69 70 70 69 68 67 72 74 77 94 97 51 40 38 34 41 54 36 40 42 38 40 38 40 36 36 32 33 28 28 26 27 26 24 24 24 48 61 57 56
53 63 68 71 71 67 70 70 70 69 68 69 71 69 94 84 52 43 47 38 34 53 38 33 36 33 35 36 31 33 39 33 29 29 28 28 31 30 24 24 24 33 59 59 60
58 56 65 70 73 69 69 71 73 72 71 71 70 71 94 57 57 60 57 56 46 33 47 32 36 42 38 32 32 33 36 39 30 28 28 27 38 29 26 28 26 26 26 40 51
59 62 64 66 69 71 69 69 71 73 72 68 78 83 90 65 72 62 58 60 45 34 36 34 37 44 41 43 47 48 46 40 34 26 27 31 37 27 25 24 25 24 29 26 26
55 61 64 63 67 70 71 70 71 72 72 63 67 91 72 80 63 59 56 52 50 40 42 43 51 49 51 50 57 49 41 37 36 28 31 34 33 26 22 22 21 21 22 22 22
57 59 58 62 65 70 78 92 83 83 77 79 73 83 62 59 51 57 54 55 44 44 54 52 59 62 54 42 38 37 38 38 34 28 32 33 27 25 25 28 27 28 25 24 22
58 62 60 61 65 70 87 99 84 92 86 63 58 53 50 57 77 63 52 59 52 55 54 58 65 51 39 36 38 38 40 40 34 28 30 33 32 27 27 26 28 25 28 27 24
61 62 65 64 64 81 83 82 84 78 97 69 56 55 49 55 75 74 45 50 51 56 53 56 49 42 36 37 38 39 41 38 36 32 35 40 42 35 29 33 27 26 26 26 24
63 62 65 66 77 86 78 75 73 81 99 71 82 60 55 59 86 57 37 41 40 58 50 56 40 44 41 40 36 42 34 34 36 40 47 37 57 44 36 32 30 25 28 28 28
64 66 65 65 82 92 76 70 70 87 98 46 68 49 46 65 54 65 49 35 45 49 47 56 50 47 47 40 34 36 33 33 37 45 52 49 56 49 35 30 23 20 26 26 30
64 66 66 71 88 78 72 75 88 99 94 60 67 85 80 68 64 56 66 50 38 43 40 46 43 38 41 34 31 32 34 40 49 53 61 50 48 55 36 29 27 24 27 28 29
62 64 64 59 79 69 78 94 99 98 51 60 61 58 77 80 70 71 67 70 70 66 77 52 46 42 36 41 37 34 44 66 66 72 57 49 52 34 35 29 27 25 27 26 25
66 65 67 60 60 70 93 97 98 63 54 33 49 54 84 74 75 73 82 83 58 50 86 80 70 44 38 36 42 37 36 62 68 79 59 44 55 42 29 22 25 23 23 25 27
69 83 88 70 65 87 91 99 89 70 52 54 49 63 69 66 86 72 75 70 61 43 60 76 68 43 39 35 31 47 42 35 54 66 65 57 48 32 30 31 24 23 23 24 28
96 96 86 62 76 93 95 83 82 62 49 48 75 65 97 90 84 85 74 58 61 46 41 50 67 44 40 37 32 34 31 48 58 74 78 66 58 44 36 28 26 26 26 27 28
97 98 73 85 86 95 96 92 70 62 54 65 68 72 65 94 90 87 94 57 58 66 45 46 47 52 44 43 43 48 39 50 43 63 70 72 59 37 29 26 26 24 26 32 33
93 99 78 84 99 100 91 71 57 65 60 69 67 65 66 63 79 95 88 95 66 56 65 45 80 55 47 37 32 41 37 42 47 60 55 66 48 34 32 30 26 25 26 33 38
88 82 72 89 100 100 98 92 79 77 74 70 69 61 55 68 95 95 98 86 78 70 59 44 72 94 62 50 43 38 42 34 42 56 58 60 53 32 33 32 27 27 27 32 40
99 95 94 98 94 94 96 91 84 75 83 68 73 69 71 73 72 87 77 64 80 97 93 48 70 87 80 65 59 60 41 38 40 62 49 49 47 39 34 31 30 29 28 35 42
99 92 88 99 92 97 94 96 78 78 70 75 84 87 95 93 68 68 54 61 82 84 94 76 75 84 70 62 51 48 44 43 44 39 49 38 45 34 32 31 30 29 31 36 42
99 94 83 88 95 85 81 89 67 66 65 73 82 75 69 90 95 92 71 78 91 94 99 96 97 96 89 69 49 47 40 40 41 39 38 44 43 35 32 36 32 29 31 34 41
98 89 96 79 93 94 90 78 71 66 60 60 68 70 75 65 62 63 62 70 95 100 99 100 99 95 96 84 90 69 46 44 40 36 37 45 35 38 38 34 33 31 32 29 32

GFSSW_sfc_rhum_126.txt.gz
RH
56 54 62 64 68 68 67 67 67 71 70 67 67 75 81 80 82 79 94 73 79 64 64 45 45 45 48 56 56 59 72 80 67 62 50 39 34 36 33 42 46 48 52 60 84
57 55 54 64 65 66 67 69 66 68 68 69 67 67 79 81 84 83 73 71 68 65 67 51 41 47 59 58 55 59 76 67 53 48 40 32 40 31 36 44 54 68 62 76 95
56 55 55 59 65 67 66 67 68 66 66 64 67 66 76 78 93 66 58 61 67 70 63 45 39 48 61 57 56 60 62 56 46 37 36 32 36 32 36 48 41 45 59 82 94
58 56 56 55 58 65 67 65 71 66 59 64 67 68 70 79 92 56 59 56 58 70 66 61 45 58 64 62 50 66 53 47 45 40 43 40 29 32 36 34 32 42 57 75 86
57 58 56 58 60 64 64 63 64 66 65 66 69 69 70 88 82 50 64 59 51 65 72 62 52 53 59 57 52 55 50 47 43 44 41 40 37 32 30 30 45 57 64 68 72
58 57 57 60 59 63 63 62 64 65 67 68 66 69 87 94 54 51 51 60 54 54 52 51 45 43 48 50 55 49 44 41 40 38 39 38 38 30 27 28 50 64 68 65 66
59 56 58 57 60 59 60 62 62 65 68 69 66 63 81 78 55 54 57 70 59 55 62 49 38 44 47 52 42 44 48 46 46 39 38 36 39 36 28 30 30 64 72 72 65
62 60 60 58 63 62 62 62 63 66 67 67 67 67 86 53 51 52 42 57 61 68 66 62 53 42 43 45 46 46 54 55 44 39 36 32 42 36 31 30 30 33 64 75 69
64 63 62 63 64 63 64 64 63 65 66 68 78 87 82 51 65 54 60 64 64 65 55 44 53 53 50 49 68 64 58 53 46 37 37 40 47 34 30 34 32 33 33 49 68
63 63 64 66 64 65 66 68 68 66 69 67 65 88 74 66 55 57 54 56 77 71 67 58 62 72 66 52 70 75 57 46 44 36 38 44 43 36 33 34 33 32 33 36 35
61 61 64 66 65 67 74 88 74 78 80 83 67 71 63 47 42 45 62 69 75 84 91 67 80 84 70 62 43 49 47 47 41 32 37 40 37 31 32 35 32 36 33 31 30
61 63 61 67 68 68 82 77 82 89 95 68 75 73 59 49 60 48 41 89 84 92 83 88 88 68 56 55 52 46 49 49 41 34 36 38 38 33 33 33 28 26 27 27 28
62 62 62 67 70 84 86 75 82 84 90 66 59 63 61 52 65 56 46 72 81 82 82 91 76 62 56 62 61 53 51 48 45 40 43 42 46 37 34 34 31 29 25 26 26
66 62 63 67 76 83 84 77 78 84 94 68 77 71 56 50 61 40 37 58 80 79 77 80 64 63 60 66 56 64 44 42 43 46 59 52 62 42 38 36 36 32 31 26 26
68 64 64 64 82 85 73 79 73 88 100 40 57 49 62 57 52 53 37 48 89 75 74 70 70 72 67 65 54 60 44 46 47 48 54 56 63 50 40 37 30 31 30 32 30
70 66 68 74 88 79 76 75 86 94 95 53 51 57 42 48 70 56 59 52 80 76 72 60 58 56 54 56 51 45 44 48 55 55 83 65 56 54 35 39 32 25 27 29 30
70 68 70 71 85 75 77 87 86 98 52 50 49 42 48 42 42 88 75 85 94 98 96 79 68 55 48 54 53 41 44 86 84 81 84 52 64 44 38 36 29 23 29 28 30
71 68 70 66 75 80 80 92 96 50 56 42 51 48 52 84 75 79 90 83 72 82 91 92 94 63 46 57 71 60 52 86 90 92 63 55 63 49 35 25 27 28 27 31 30
71 81 83 80 75 82 90 100 84 60 41 45 55 56 76 86 82 84 83 86 73 88 93 99 79 63 54 47 55 64 61 46 62 76 75 67 58 42 38 35 34 31 30 32 29
94 93 88 76 78 90 99 88 72 56 48 48 67 74 93 79 70 91 80 55 57 90 86 88 80 64 56 45 44 49 45 58 65 88 80 76 70 45 41 29 28 34 33 29 29
94 94 72 81 81 97 98 91 70 53 45 57 69 82 66 83 80 75 88 66 92 83 94 100 95 74 60 59 59 53 53 49 65 85 74 79 66 48 35 34 30 29 29 29 28
95 98 90 85 100 98 98 83 58 56 53 67 97 94 83 84 92 82 87 74 90 98 90 89 100 97 73 48 49 50 56 56 83 96 73 71 59 40 33 28 34 32 32 33 31
99 84 86 86 99 99 94 92 76 73 75 71 77 73 68 75 95 92 74 90 100 96 95 90 95 97 99 85 69 74 55 46 52 55 69 71 58 38 41 39 35 32 31 30 33
100 98 95 98 92 88 96 95 88 81 92 80 87 80 86 90 78 94 86 83 74 80 92 84 88 91 93 93 85 93 83 76 66 80 62 55 45 42 38 34 34 34 34 31 35
100 95 84 99 96 94 94 95 89 81 68 66 92 81 93 96 81 80 54 65 63 76 97 97 97 79 75 74 70 71 72 72 82 88 81 50 47 36 37 34 30 32 34 33 35
98 98 90 97 89 96 88 95 78 66 68 72 71 70 74 93 75 88 76 75 86 87 100 100 94 83 77 56 72 77 64 62 54 65 68 52 46 34 31 38 37 34 34 34 34
98 90 90 83 90 96 88 78 71 72 68 58 62 77 74 64 58 63 61 60 66 81 86 97 97 95 88 61 72 97 70 58 56 46 50 55 39 40 39 35 33 32 36 32 30

GFSSW_sfc_rhum_129.txt.gz
RH
58 58 57 56 61 64 66 66 67 66 66 67 66 67 68 72 81 70 80 68 78 72 66 62 43 53 42 51 53 53 62 67 59 58 47 32 32 27 27 32 38 37 35 47 77
57 57 56 56 56 58 64 66 65 68 66 64 64 65 69 72 81 76 62 62 68 69 72 78 46 44 50 53 55 55 65 60 49 47 33 28 32 28 29 35 37 43 64 80 87
58 57 57 54 57 56 63 60 62 65 65 67 61 66 70 70 79 53 44 59 65 64 69 72 49 46 57 56 54 56 58 50 45 41 30 32 27 28 33 40 34 37 56 91 88
59 58 57 58 57 58 59 62 59 58 62 63 64 65 71 76 74 51 56 60 61 66 74 79 47 54 62 59 49 58 52 46 42 42 37 36 27 25 34 30 27 34 55 82 88
60 59 57 57 57 58 58 59 59 60 61 63 64 64 69 84 75 43 56 55 54 66 82 78 73 52 56 60 52 55 49 46 41 41 40 36 35 32 28 28 34 48 63 71 78
61 62 61 58 58 59 62 60 60 60 61 62 64 63 77 93 48 45 47 52 56 58 63 75 53 47 47 48 56 50 47 42 42 43 39 36 34 32 27 25 44 55 57 61 67
64 62 65 64 60 62 63 61 61 62 63 60 62 62 76 74 50 46 47 51 52 60 68 54 63 45 46 50 44 44 47 46 44 39 40 36 40 35 26 26 35 51 53 61 61
64 64 65 63 63 65 64 64 64 64 62 61 63 66 83 53 51 54 51 54 45 48 66 70 57 48 49 42 40 49 49 56 42 41 39 36 50 37 28 26 26 33 51 59 60
62 62 64 64 67 66 65 66 64 62 62 61 72 82 77 50 62 55 54 62 56 54 62 60 68 62 50 57 58 51 52 57 46 40 37 39 41 31 30 29 27 25 28 52 55
63 61 62 63 66 66 67 67 57 63 56 62 65 89 72 55 58 47 47 53 68 58 77 80 86 76 64 57 68 67 57 45 46 38 40 44 42 33 28 31 28 26 25 27 40
63 63 62 62 65 67 77 76 80 75 67 73 69 67 61 50 44 46 40 41 60 68 95 80 96 95 76 59 43 50 49 47 39 32 40 39 35 32 30 32 33 30 28 28 28
64 63 64 61 67 69 78 78 87 80 88 60 58 61 53 48 67 50 38 50 82 88 73 90 93 70 60 64 66 48 52 49 39 32 36 37 38 32 31 29 28 26 25 26 25
68 65 64 61 68 82 86 73 78 84 97 59 50 56 59 57 70 64 42 43 68 87 72 86 74 62 68 67 75 70 53 52 44 38 37 39 41 37 32 31 28 27 25 22 21
77 68 67 67 72 82 83 69 80 82 91 61 66 62 55 52 68 44 42 42 51 80 66 75 61 72 70 77 63 77 52 45 44 48 70 36 47 42 33 31 31 27 27 25 24
83 72 68 69 84 85 68 76 77 82 74 29 52 46 58 60 59 58 41 46 62 80 71 62 67 75 79 75 58 72 54 50 47 48 56 51 53 40 34 33 28 27 29 29 27
85 75 70 79 88 77 74 75 77 83 86 48 46 42 46 40 40 56 58 45 48 58 76 65 46 56 67 57 58 56 54 53 50 51 94 67 57 48 38 34 30 24 22 26 27
86 76 78 70 87 75 73 78 87 85 42 39 49 45 42 68 70 63 66 75 76 96 91 92 76 57 60 68 62 65 84 97 97 93 84 57 68 51 39 32 25 23 21 25 26
83 80 77 70 71 74 82 82 85 46 50 42 46 43 48 68 66 64 63 79 77 85 97 95 97 64 62 65 74 69 90 92 87 88 62 59 76 50 38 31 28 27 25 27 27
85 89 85 77 73 81 89 98 83 55 43 51 49 53 68 80 69 66 58 60 71 98 99 99 89 61 55 56 57 78 93 56 71 60 64 59 46 37 37 35 33 30 31 28 28
96 94 87 77 74 87 98 84 67 52 53 56 78 61 96 75 71 83 80 47 58 71 99 94 98 65 59 54 52 63 56 77 76 95 77 65 56 39 41 33 31 30 30 30 31
96 99 80 79 81 99 97 89 71 55 54 60 69 78 75 73 80 87 82 61 83 80 90 100 100 92 64 69 63 72 69 72 80 90 65 68 55 42 35 29 26 25 26 30 30
98 99 88 80 99 99 98 77 58 59 56 69 77 78 80 76 96 91 85 83 84 92 90 97 99 94 98 62 47 57 56 69 82 98 79 57 44 35 31 29 30 28 30 30 30
99 96 91 90 98 98 93 90 82 74 72 74 79 80 75 92 96 95 85 75 97 98 90 84 94 94 94 93 68 62 55 57 59 67 72 65 51 35 37 35 33 32 30 29 31
100 98 99 100 92 85 95 94 89 78 82 78 90 88 88 92 80 94 68 62 57 65 77 98 91 92 89 95 98 97 78 58 61 67 57 62 46 38 35 34 34 33 32 28 32
100 95 83 98 97 93 91 94 92 82 76 69 82 84 84 94 87 87 60 64 56 78 97 100 95 92 88 68 90 93 95 86 72 67 63 49 54 40 34 31 30 31 34 30 32
99 97 90 92 78 95 94 93 84 70 72 73 76 61 67 93 71 91 78 78 83 85 95 93 91 77 75 50 51 60 91 97 88 72 73 68 58 39 33 33 32 31 32 32 31
99 90 92 92 95 94 87 75 79 68 62 53 57 84 78 67 55 62 66 63 65 76 88 93 91 91 82 58 58 69 53 78 93 82 82 84 54 42 40 33 30 32 34 31 30